User: anonymous   Login
Location: Volcán Tajumulco
(15.0427°N, 91.9045°W)
Time: 07:01:32
(UTC-06:00)
Language:

PCSat - Orbit

View from above orbital plane
View from above orbital plane
View from above satellite
View from above satellite

Ground track
Ground track

The orbit data is extracted from the following two-line orbital elements,

1 26931U 01043C   21016.54088576  .00000048  00000-0  50059-4 0  9997
2 26931  67.0525 312.4874 0007419 272.0474  87.9777 14.30602905  7512
Epoch (UTC): 16 January 2021 12:58:52
Eccentricity: 0.0007419
inclination: 67.0525°
perigee height: 784 km
apogee height: 795 km
right ascension of ascending node: 312.4874°
argument of perigee: 272.0474°
revolutions per day: 14.30602905
mean anomaly at epoch: 87.9777°
orbit number at epoch: 751

The dashed part of the orbit path shows where the satellite is in the earth's shadow,  

DLR